This is the latest recevied weather packets stored in our database for station/object N4CRH-13. If no packets are shown the sender has not sent any weather packets the latest 1 day(s).
| Time | Temp. | Humidity | Pressure | Rain* | Wind** | Luminosity | Snow |
|---|---|---|---|---|---|---|---|
| 1778013388 | 1.67° C | 99% | 1289.2 hPa | 1.78 mm | 1.79 m/s, 296° | 205 W/m² | - |
| 1778013085 | 1.67° C | 99% | 1289.4 hPa | 1.78 mm | 2.24 m/s, 299° | 225 W/m² | - |
| 1778012780 | 1.67° C | 99% | 1289.4 hPa | 0 mm | 2.24 m/s, 293° | 139 W/m² | - |
| 1778012476 | 1.67° C | 99% | 1289.6 hPa | 0 mm | 2.68 m/s, 289° | 139 W/m² | - |
| 1778012173 | 1.67° C | 99% | 1289.6 hPa | 0 mm | 2.24 m/s, 269° | 134 W/m² | - |
| 1778011871 | 1.67° C | 99% | 1289.6 hPa | 0 mm | 0.89 m/s, 295° | 178 W/m² | - |
| 1778011564 | 1.67° C | 99% | 1289.7 hPa | 0 mm | 2.24 m/s, 305° | 201 W/m² | - |
| 1778011260 | 1.67° C | 99% | 1289.6 hPa | 0 mm | 1.79 m/s, 295° | 249 W/m² | - |
| 1778010955 | 1.67° C | 99% | 1289.7 hPa | 0 mm | 2.24 m/s, 295° | 213 W/m² | - |
| 1778010653 | 1.67° C | 99% | 1289.7 hPa | 0 mm | 1.34 m/s, 290° | 225 W/m² | - |
| 1778010350 | 1.11° C | 99% | 1289.7 hPa | 0 mm | 1.34 m/s, 291° | 209 W/m² | - |
| 1778010045 | 1.11° C | 99% | 1290 hPa | 1.27 mm | 1.34 m/s, 278° | 174 W/m² | - |
| 1778009743 | 1.11° C | 99% | 1289.8 hPa | 1.27 mm | 1.34 m/s, 271° | 168 W/m² | - |
| 1778009440 | 1.11° C | 99% | 1290.1 hPa | 0 mm | 1.34 m/s, 268° | 157 W/m² | - |
| 1778009138 | 1.11° C | 99% | 1289.8 hPa | 0 mm | 2.24 m/s, 256° | 145 W/m² | - |
| 1778008836 | 0.56° C | 99% | 1290.1 hPa | 0 mm | 1.34 m/s, 278° | 166 W/m² | - |
| 1778008528 | 0.56° C | 99% | 1289.8 hPa | 1.78 mm | 1.34 m/s, 258° | 152 W/m² | - |
| 1778008226 | 0.56° C | 99% | 1290.2 hPa | 1.78 mm | 1.34 m/s, 263° | 123 W/m² | - |
| 1778007920 | 0.56° C | 99% | 1290.2 hPa | 0 mm | 0.45 m/s, 295° | 99 W/m² | - |
| 1778007616 | 0.56° C | 99% | 1290.2 hPa | 0 mm | 0.45 m/s, 285° | 103 W/m² | - |
| 1778007313 | 1.11° C | 99% | 1290.1 hPa | 1.27 mm | 0 m/s | 116 W/m² | - |
| 1778007009 | 1.11° C | 99% | 1290 hPa | 0 mm | 0 m/s | 130 W/m² | - |
| 1778006707 | 1.67° C | 99% | 1290.2 hPa | 0 mm | 0 m/s | 145 W/m² | - |
| 1778006403 | 1.11° C | 99% | 1290.2 hPa | 0 mm | 0 m/s | 131 W/m² | - |
| 1778006095 | 1.11° C | 99% | 1290.4 hPa | 0 mm | 0 m/s | 129 W/m² | - |
* Rain latest hour (hover to see other rain measurements)
** Current wind speed in m/s (hover to see current wind gust speed)